[[{"header":{"parameterUnit":"m.s-1","parameterCategory":1,"la1":30.2991,"la2":30.254,"lo1":-89.0895,"lo2":-89.0444,"dy":0.0017,"dx":0.0017,"nx":28,"ny":28,"refTime":"2024-02-18T09:00:00:Z","depth":0,"parameterNumber":2,"parameterNumberName":"U-component_of_WINDS"},"data":[0,0,0,0,0,0,0,0,0,0,0,0,0,0,0,0,0,0,0,0,0,0,0,0,0,0,0,0,0,0,0,0,0,0,0,0,0,0,0,0,0,0,0,0,0,0,0,0,0,0,0,0,0,0,0,0,0,0,1.065,1.065,0,1.0614,1.0614,1.0614,1.0609,1.0609,1.061,1.061,1.057,1.0568,1.0567,0,0,0,0,0,0,0,0,0,0,0,0,0,1.0712,1.0711,1.065,1.065,1.065,1.0615,1.0614,1.0614,1.0609,1.0609,1.061,1.061,1.057,1.0568,1.0567,0,0,0,0,0,0,0,0,0,0,0,0,0,1.0681,1.071,1.065,1.0643,1.0642,1.0615,1.0614,1.0613,1.0609,1.0609,1.061,1.061,1.0571,1.0569,1.0567,1.0543,0,0,1.056,1.0559,0,0,0,0,0,0,0,0,1.0683,1.0679,1.0645,1.0644,1.0642,1.0617,1.0621,1.059,1.0609,1.0621,1.061,1.0611,1.0585,1.0581,1.0573,1.0541,1.0539,1.056,1.0559,1.0558,1.0557,0,0,0,0,0,0,0,1.0685,1.0681,1.0636,1.0644,1.0643,1.064,1.0637,1.0615,1.06,1.062,1.062,1.0616,1.0584,1.0575,1.0572,1.0539,1.056,1.0558,1.0557,1.0556,1.0485,1.0484,0,0,0,0,0,0,1.0689,1.0682,1.0637,1.0635,1.0665,1.0639,1.0635,1.0624,1.0601,1.0598,1.0615,1.0616,1.0579,1.0575,1.0571,1.0541,1.0558,1.0556,1.0555,1.0485,1.0484,1.0484,0,0,0,0,0,0,1.069,1.0685,1.0639,1.0659,1.0653,1.0637,1.0626,1.0623,1.0615,1.0597,1.0594,1.0609,1.0579,1.0574,1.055,1.054,1.0555,1.0553,1.0486,1.0485,1.0484,1.0481,0,0,0,0,0,0,1.0692,1.0686,1.0677,1.0659,1.0652,1.0619,1.0625,1.0622,1.0612,1.0612,1.0591,1.0588,1.0579,1.0553,1.0548,1.0537,1.0551,1.0487,1.0485,1.0484,1.0482,1.048,1.0479,0,0,0,0,0,1.0694,1.0677,1.0677,1.0671,1.0641,1.0619,1.0615,1.0606,1.0611,1.0602,1.059,1.0588,1.0542,1.0551,1.0545,1.0533,1.0487,1.0486,1.0484,1.0483,1.0481,1.0479,0,0,0,0,0,0,1.0694,1.0675,1.0674,1.0651,1.0636,1.0618,1.0606,1.0604,1.0587,1.0588,1.0577,1.0573,1.0549,1.0539,1.0549,1.0509,1.0515,1.0512,1.0516,1.0514,1.0512,1.0514,1.055,0,0,0,0,0,1.0691,1.0676,1.066,1.064,1.0634,1.0621,1.0611,1.0606,1.0591,1.0584,1.0571,1.0555,1.0537,1.0525,1.0507,1.0482,1.0476,1.047,1.0469,1.0467,1.0464,1.0449,1.0446,1.0479,1.0479,1.0479,0,0,1.0685,1.0673,1.0664,1.064,1.0629,1.0612,1.0616,1.0598,1.0585,1.0581,1.0558,1.0548,1.0529,1.0504,1.0492,1.0495,1.0454,1.0466,1.0465,1.0462,1.0447,1.0444,1.0441,1.0478,1.0478,1.0478,0,0,1.0665,1.0655,1.0638,1.0626,1.0609,1.0601,1.0597,1.0579,1.0572,1.0549,1.0546,1.053,1.0499,1.0486,1.0475,1.0451,1.0448,1.0445,1.0435,1.042,1.0418,1.0415,1.0405,1.0402,1.0443,1.0443,1.0443,0,1.0659,1.0635,1.0628,1.0611,1.06,1.0597,1.0579,1.0568,1.0545,1.0537,1.0541,1.0502,1.049,1.0461,1.0455,1.0447,1.0441,1.0447,1.0419,1.0416,1.0414,1.0404,1.0401,1.0443,1.0443,1.0443,1.0443,0,1.0628,1.0611,1.0599,1.0578,1.0566,1.0548,1.0538,1.0527,1.0523,1.0514,1.049,1.0475,1.0454,1.0447,1.0443,1.0418,1.042,1.0421,1.0427,1.0411,1.0401,1.0397,1.0442,1.0442,1.0442,1.0442,0,0,1.0605,1.0582,1.0577,1.0568,1.0549,1.0535,1.0517,1.0498,1.0487,1.0472,1.0455,1.043,1.0432,1.0419,1.0414,1.0401,1.0381,1.0404,1.0403,1.0399,1.035,1.0348,1.0344,1.038,1.0379,1.0379,1.0351,0,1.0581,1.0549,1.0543,1.0515,1.0498,1.0496,1.048,1.0466,1.0458,1.0442,1.0432,1.0414,1.0418,1.041,1.0398,1.0386,1.0371,1.0388,1.0362,1.0362,1.0365,1.0339,1.0336,1.0311,1.0348,1.0347,1.0347,0,1.0549,1.0535,1.0505,1.0488,1.0481,1.0467,1.0448,1.0434,1.0418,1.0412,1.0399,1.0395,1.0375,1.0383,1.0354,1.0366,1.0355,1.0348,1.0347,1.0342,1.0352,1.0332,1.0303,1.0298,1.0341,1.0342,1.0342,0,1.0534,1.0506,1.0485,1.0477,1.0457,1.0447,1.0438,1.0423,1.0412,1.0396,1.0388,1.0369,1.0358,1.0343,1.0334,1.0341,1.0305,1.0313,1.0299,1.0299,1.0289,1.029,1.0256,1.0286,1.0286,1.0286,1.0286,0,1.0507,1.0488,1.0477,1.0464,1.0443,1.0436,1.0415,1.0406,1.0393,1.0376,1.0374,1.0358,1.0348,1.0331,1.0323,1.0299,1.0295,1.0289,1.0287,1.0288,1.0289,1.0279,1.028,1.0285,1.0285,1.0285,1.0286,0,1.0485,1.0477,1.0453,1.0437,1.0432,1.0417,1.0403,1.0389,1.0382,1.0361,1.0356,1.0343,1.0323,1.0313,1.0287,1.0282,1.0255,1.0255,1.026,1.0259,1.0245,1.0245,1.0202,1.0195,1.0232,1.0231,1.0231,0,1.0467,1.0453,1.0436,1.0425,1.0416,1.04,1.0388,1.0381,1.0369,1.035,1.0339,1.0319,1.0302,1.027,1.0257,1.0238,1.0236,1.0222,1.0233,1.0234,1.0233,1.0233,1.0231,1.022,1.0219,1.0219,1.0219,0,1.0436,1.0433,1.0417,1.04,1.0387,1.0373,1.0359,1.0351,1.0341,1.0328,1.0308,1.0295,1.027,1.0249,1.0229,1.0219,1.0216,1.0216,1.0211,1.0211,1.0214,1.021,1.0253,1.0216,1.0217,1.0217,1.0217,1.0217,1.0414,1.0401,1.0387,1.0369,1.0359,1.0346,1.0332,1.0323,1.0306,1.0286,1.0283,1.0261,1.0245,1.0218,1.0207,1.0189,1.0192,1.0185,1.0183,1.0181,1.018,1.0219,1.0186,1.0186,1.0186,1.0186,1.0186,0,1.0381,1.0373,1.0357,1.0338,1.0324,1.0325,1.031,1.0298,1.0279,1.0265,1.0249,1.0226,1.0206,1.0193,1.0173,1.0161,1.0159,1.0155,1.0155,1.0152,1.0179,1.0185,1.0157,1.0157,1.0157,1.0157,1.0157,1.0157,1.0362,1.034,1.0335,1.0307,1.0298,1.0278,1.0269,1.0256,1.0245,1.0219,1.0204,1.0196,1.0182,1.0161,1.0142,1.0139,1.013,1.0126,1.0122,1.0147,1.015,1.0153,1.0158,1.0125,1.0125,1.0097,1.0096,1.0096]},{"header":{"parameterUnit":"m.s-1","parameterCategory":1,"la1":30.2991,"la2":30.254,"lo1":-89.0895,"lo2":-89.0444,"dy":0.0017,"dx":0.0017,"nx":28,"ny":28,"refTime":"2024-02-18T09:00:00:Z","depth":0,"parameterNumber":3,"parameterNumberName":"V-component_of_WINDS"},"data":[0,0,0,0,0,0,0,0,0,0,0,0,0,0,0,0,0,0,0,0,0,0,0,0,0,0,0,0,0,0,0,0,0,0,0,0,0,0,0,0,0,0,0,0,0,0,0,0,0,0,0,0,0,0,0,0,0,0,-4.9403,-4.9404,0,-4.9551,-4.9552,-4.9554,-4.9497,-4.9493,-4.949,-4.9487,-4.9635,-4.9642,-4.9649,0,0,0,0,0,0,0,0,0,0,0,0,0,-4.9067,-4.9074,-4.9403,-4.9405,-4.9406,-4.955,-4.9552,-4.9554,-4.9497,-4.9493,-4.9489,-4.9485,-4.9633,-4.9641,-4.965,0,0,0,0,0,0,0,0,0,0,0,0,0,-4.9214,-4.9076,-4.9402,-4.9395,-4.9396,-4.955,-4.9552,-4.9555,-4.9498,-4.9493,-4.9488,-4.9483,-4.963,-4.964,-4.9651,-4.982,0,0,-4.9684,-4.9688,0,0,0,0,0,0,0,0,-4.9206,-4.9226,-4.9394,-4.9396,-4.9397,-4.95,-4.9489,-4.9644,-4.9499,-4.9459,-4.9486,-4.9481,-4.9594,-4.9607,-4.9646,-4.9826,-4.9833,-4.9684,-4.9691,-4.9696,-4.9699,0,0,0,0,0,0,0,-4.9196,-4.922,-4.9461,-4.9397,-4.9399,-4.9384,-4.9399,-4.9518,-4.9553,-4.9462,-4.9459,-4.9477,-4.9594,-4.9636,-4.9649,-4.9835,-4.9684,-4.9694,-4.97,-4.9704,-5.016,-5.0166,0,0,0,0,0,0,-4.9185,-4.9211,-4.9456,-4.9465,-4.9287,-4.9394,-4.9411,-4.9472,-4.9552,-4.9559,-4.9481,-4.9474,-4.962,-4.9637,-4.9654,-4.9857,-4.9695,-4.9706,-4.9712,-5.0155,-5.0161,-5.0168,0,0,0,0,0,0,-4.9178,-4.9208,-4.945,-4.9338,-4.9367,-4.9405,-4.9474,-4.9478,-4.952,-4.9566,-4.9572,-4.9518,-4.9617,-4.9639,-4.9779,-4.9861,-4.971,-4.972,-5.0148,-5.0157,-5.0164,-5.0264,0,0,0,0,0,0,-4.9169,-4.9206,-4.9271,-4.934,-4.9374,-4.9574,-4.948,-4.9484,-4.9539,-4.9531,-4.9603,-4.9609,-4.9615,-4.9763,-4.979,-4.9873,-4.9728,-5.0141,-5.0152,-5.0162,-5.0253,-5.0275,-5.0293,0,0,0,0,0,-4.9157,-4.9293,-4.9275,-4.9305,-4.9456,-4.9579,-4.9598,-4.9602,-4.9546,-4.9611,-4.9641,-4.9607,-4.9848,-4.9778,-4.9807,-4.9895,-5.0135,-5.0149,-5.0161,-5.0244,-5.027,-5.0292,0,0,0,0,0,0,-4.9232,-4.9301,-4.9282,-4.9444,-4.9506,-4.9569,-4.9652,-4.963,-4.9708,-4.9697,-4.9698,-4.9714,-4.9859,-4.9891,-4.9812,-5.0062,-4.9983,-5.0002,-5.0036,-5.0061,-5.0081,-5.007,-4.9737,0,0,0,0,0,-4.9267,-4.9362,-4.9417,-4.9554,-4.9587,-4.9614,-4.9668,-4.9665,-4.9729,-4.9755,-4.9795,-4.9857,-4.9947,-5.0006,-5.0091,-5.0257,-5.0272,-5.0332,-5.0352,-5.0368,-5.0385,-5.0474,-5.0502,-5.021,-5.0209,-5.0209,0,0,-4.9341,-4.9391,-4.9451,-4.9571,-4.9619,-4.9716,-4.9637,-4.9743,-4.9815,-4.9771,-4.9905,-4.9937,-5.0006,-5.016,-5.023,-5.0191,-5.0468,-5.0384,-5.0397,-5.0405,-5.049,-5.0518,-5.0543,-5.0218,-5.0217,-5.0215,0,0,-4.9526,-4.9573,-4.9693,-4.9742,-4.9816,-4.9833,-4.9862,-4.9928,-4.9948,-5.0083,-5.0052,-5.0137,-5.0291,-5.0342,-5.0388,-5.0591,-5.0563,-5.0618,-5.0722,-5.081,-5.0833,-5.0853,-5.0925,-5.0951,-5.0635,-5.0635,-5.0635,0,-4.9608,-4.9754,-4.9756,-4.9866,-4.9919,-4.9884,-5.0005,-5.0052,-5.015,-5.0187,-5.0143,-5.0336,-5.038,-5.0545,-5.0595,-5.0633,-5.0665,-5.0611,-5.0829,-5.085,-5.0869,-5.0938,-5.0965,-5.0641,-5.0641,-5.064,-5.0639,0,-4.9852,-4.9954,-5.0041,-5.0137,-5.02,-5.0314,-5.0333,-5.0396,-5.0388,-5.041,-5.0547,-5.0599,-5.0694,-5.0733,-5.0726,-5.0897,-5.0871,-5.0828,-5.0748,-5.0903,-5.0968,-5.0994,-5.065,-5.0648,-5.0646,-5.0645,0,0,-5.0088,-5.0184,-5.0216,-5.0259,-5.0337,-5.0415,-5.0527,-5.0621,-5.0675,-5.0743,-5.0836,-5.0968,-5.0929,-5.0981,-5.0979,-5.1056,-5.1213,-5.1004,-5.1005,-5.1041,-5.1405,-5.1437,-5.1467,-5.1195,-5.12,-5.1204,-5.1399,0,-5.0279,-5.0477,-5.0482,-5.0662,-5.0756,-5.0724,-5.0821,-5.088,-5.0903,-5.0984,-5.1009,-5.1102,-5.1043,-5.1075,-5.1149,-5.1178,-5.1286,-5.1164,-5.1281,-5.1285,-5.1265,-5.1501,-5.1535,-5.1717,-5.1424,-5.1428,-5.1431,0,-5.0528,-5.0605,-5.0796,-5.086,-5.0899,-5.0987,-5.1073,-5.1152,-5.1217,-5.1228,-5.1286,-5.1273,-5.1386,-5.1302,-5.1457,-5.1374,-5.1422,-5.1443,-5.145,-5.1462,-5.1368,-5.1519,-5.1775,-5.1802,-5.1471,-5.1468,-5.1465,0,-5.0681,-5.0832,-5.0966,-5.1003,-5.1082,-5.1144,-5.118,-5.1239,-5.1295,-5.137,-5.1406,-5.1492,-5.154,-5.1606,-5.1616,-5.1554,-5.1772,-5.1689,-5.1784,-5.1784,-5.1831,-5.1828,-5.2099,-5.1862,-5.1861,-5.1861,-5.186,0,-5.0894,-5.1012,-5.1036,-5.1118,-5.1249,-5.1252,-5.1381,-5.1411,-5.1465,-5.1551,-5.1528,-5.161,-5.1617,-5.1701,-5.1709,-5.1836,-5.1858,-5.1869,-5.187,-5.1872,-5.187,-5.1903,-5.1891,-5.1868,-5.1867,-5.1865,-5.1864,0,-5.1088,-5.1109,-5.1252,-5.1315,-5.1333,-5.1427,-5.148,-5.1558,-5.1578,-5.1688,-5.1714,-5.1745,-5.1842,-5.1859,-5.1973,-5.1978,-5.213,-5.2118,-5.2109,-5.2107,-5.2201,-5.2192,-5.2503,-5.2543,-5.2279,-5.2282,-5.2284,0,-5.1222,-5.1312,-5.1385,-5.1442,-5.1481,-5.1572,-5.1629,-5.1636,-5.1696,-5.1776,-5.1844,-5.1939,-5.2016,-5.2172,-5.2204,-5.2291,-5.2281,-5.2384,-5.2294,-5.2292,-5.2283,-5.2277,-5.2286,-5.2401,-5.2404,-5.2406,-5.2408,0,-5.1459,-5.1465,-5.1548,-5.1636,-5.1705,-5.1774,-5.1839,-5.1886,-5.1901,-5.1969,-5.2069,-5.2128,-5.2245,-5.2339,-5.2426,-5.246,-5.2437,-5.2436,-5.2463,-5.2466,-5.2457,-5.2463,-5.2156,-5.2429,-5.2427,-5.2426,-5.2424,-5.2424,-5.1627,-5.1706,-5.1769,-5.1863,-5.1912,-5.1974,-5.205,-5.208,-5.2164,-5.226,-5.2258,-5.2367,-5.2428,-5.2542,-5.2583,-5.2667,-5.2634,-5.2672,-5.2682,-5.2692,-5.2701,-5.2443,-5.2683,-5.2682,-5.2682,-5.2681,-5.2681,0,-5.1863,-5.1902,-5.1988,-5.208,-5.2154,-5.2126,-5.2196,-5.2259,-5.2356,-5.2416,-5.2491,-5.2605,-5.2697,-5.2736,-5.2825,-5.2886,-5.2877,-5.2909,-5.2905,-5.2913,-5.2725,-5.2694,-5.2914,-5.2914,-5.2914,-5.2914,-5.2914,-5.2914,-5.1994,-5.2125,-5.2138,-5.2293,-5.2331,-5.2439,-5.2481,-5.2537,-5.2585,-5.2714,-5.279,-5.2815,-5.2867,-5.2959,-5.3041,-5.305,-5.3084,-5.3121,-5.3125,-5.295,-5.2926,-5.2904,-5.2874,-5.3129,-5.3129,-5.3306,-5.3307,-5.3309]}]]